Time,TemperatureF,DewpointF,PressureIn,WindDirection,WindDirectionDegrees,WindSpeedMPH,WindSpeedGustMPH,Humidity,HourlyPrecipIn,Conditions,Clouds,dailyrainin,SolarRadiationWatts/m^2,SoftwareType,DateUTC
2013-01-01 00:00:00,9.0,-99.9,44.89,West,269,1.0,4.0,-999,-99.99,,,-99.99,0.000000,,2013-01-01 07:00:00,
2013-01-01 00:53:00,9.0,-99.9,44.89,West,269,1.0,4.0,-999,-99.99,,,-99.99,0.000000,,2013-01-01 07:53:00,
2013-01-01 01:00:00,7.0,-99.9,44.89,WSW,258,1.0,6.0,-999,-99.99,,,-99.99,0.000000,,2013-01-01 08:00:00,
2013-01-01 01:53:00,7.0,-99.9,44.89,WSW,258,1.0,6.0,-999,-99.99,,,-99.99,0.000000,,2013-01-01 08:53:00,
2013-01-01 02:00:00,14.0,-99.9,44.89,WSW,256,1.0,8.0,-999,-99.99,,,-99.99,0.000000,,2013-01-01 09:00:00,
2013-01-01 02:53:00,14.0,-99.9,44.89,WSW,256,1.0,8.0,-999,-99.99,,,-99.99,0.000000,,2013-01-01 09:53:00,
2013-01-01 03:00:00,18.0,-99.9,44.89,West,281,2.0,10.0,-999,-99.99,,,-99.99,0.000000,,2013-01-01 10:00:00,
2013-01-01 03:53:00,18.0,-99.9,44.89,West,281,2.0,10.0,-999,-99.99,,,-99.99,0.000000,,2013-01-01 10:53:00,
2013-01-01 04:00:00,11.0,-99.9,-100.00,West,272,2.0,7.0,-999,-99.99,,,0.00,0.000000,,2013-01-01 11:00:00,
2013-01-01 04:53:00,11.0,-99.9,-100.00,West,272,2.0,7.0,-999,-99.99,,,0.00,0.000000,,2013-01-01 11:53:00,
2013-01-01 05:00:00,17.0,-99.9,-100.00,SW,225,2.0,6.0,-999,-99.99,,,-99.99,0.000000,,2013-01-01 12:00:00,
2013-01-01 05:53:00,17.0,-99.9,-100.00,SW,225,2.0,6.0,-999,-99.99,,,-99.99,0.000000,,2013-01-01 12:53:00,
2013-01-01 06:53:00,16.0,-99.9,-100.00,WNW,299,3.0,12.0,-999,-99.99,,,-99.99,0.000000,,2013-01-01 13:53:00,
2013-01-01 07:00:00,23.0,-99.9,44.89,NNW,329,3.0,10.0,-999,-99.99,,,0.00,0.000000,,2013-01-01 14:00:00,
2013-01-01 07:53:00,23.0,-99.9,44.89,NNW,329,3.0,10.0,-999,-99.99,,,0.00,0.000000,,2013-01-01 14:53:00,
2013-01-01 08:00:00,23.0,-99.9,44.89,WSW,243,3.0,12.0,-999,-99.99,,,0.01,0.300000,,2013-01-01 15:00:00,
2013-01-01 08:53:00,23.0,-99.9,44.89,WSW,243,3.0,12.0,-999,-99.99,,,0.01,0.300000,,2013-01-01 15:53:00,
2013-01-01 09:00:00,14.0,-99.9,-100.00,WSW,256,3.0,11.0,-999,-99.99,,,0.01,0.600000,,2013-01-01 16:00:00,
2013-01-01 09:53:00,14.0,-99.9,-100.00,WSW,256,3.0,11.0,-999,-99.99,,,0.01,0.600000,,2013-01-01 16:53:00,
2013-01-01 10:00:00,24.0,-99.9,44.89,ESE,121,3.0,12.0,-999,-99.99,,,0.01,1.800000,,2013-01-01 17:00:00,
2013-01-01 10:53:00,24.0,-99.9,44.89,ESE,121,3.0,12.0,-999,-99.99,,,0.01,1.800000,,2013-01-01 17:53:00,
2013-01-01 11:00:00,26.0,-99.9,44.89,SE,126,3.0,11.0,-999,-99.99,,,0.01,11.600000,,2013-01-01 18:00:00,
2013-01-01 11:53:00,26.0,-99.9,44.89,SE,126,3.0,11.0,-999,-99.99,,,0.01,11.600000,,2013-01-01 18:53:00,
2013-01-01 12:00:00,20.0,-99.9,44.89,ENE,58,2.0,10.0,-999,-99.99,,,0.00,24.700001,,2013-01-01 19:00:00,
2013-01-01 12:53:00,20.0,-99.9,44.89,ENE,58,2.0,10.0,-999,-99.99,,,0.00,24.700001,,2013-01-01 19:53:00,
2013-01-01 13:00:00,20.0,-99.9,-100.00,ENE,78,1.0,6.0,-999,-99.99,,,-99.99,5.800000,,2013-01-01 20:00:00,
2013-01-01 13:53:00,20.0,-99.9,-100.00,ENE,78,1.0,6.0,-999,-99.99,,,-99.99,5.800000,,2013-01-01 20:53:00,
2013-01-01 14:00:00,18.0,-99.9,44.89,North,10,2.0,7.0,-999,-99.99,,,-99.99,2.800000,,2013-01-01 21:00:00,
2013-01-01 14:53:00,18.0,-99.9,44.89,North,10,2.0,7.0,-999,-99.99,,,-99.99,2.800000,,2013-01-01 21:53:00,
2013-01-01 15:00:00,16.0,-99.9,44.89,North,11,2.0,6.0,-999,-99.99,,,0.00,1.500000,,2013-01-01 22:00:00,
2013-01-01 15:53:00,16.0,-99.9,44.89,North,11,2.0,6.0,-999,-99.99,,,0.00,1.500000,,2013-01-01 22:53:00,
2013-01-01 16:00:00,15.0,-99.9,-100.00,North,-999,-999.0,-999.0,-999,-99.99,,,-99.99,,,2013-01-01 23:00:00,
2013-01-01 16:53:00,15.0,-99.9,-100.00,North,-999,-999.0,-999.0,-999,-99.99,,,-99.99,,,2013-01-01 23:53:00,
2013-01-01 17:00:00,-999.0,-99.9,-100.00,NNE,22,1.0,8.0,-999,-99.99,,,-99.99,0.600000,,2013-01-02 00:00:00,
2013-01-01 17:53:00,-999.0,-99.9,-100.00,NNE,22,1.0,8.0,-999,-99.99,,,-99.99,0.600000,,2013-01-02 00:53:00,
2013-01-01 18:00:00,7.0,-99.9,44.89,NNE,20,1.0,2.0,-999,-99.99,,,-99.99,1.800000,,2013-01-02 01:00:00,
2013-01-01 18:53:00,7.0,-99.9,44.89,NNE,20,1.0,2.0,-999,-99.99,,,-99.99,1.800000,,2013-01-02 01:53:00,
2013-01-01 19:00:00,4.0,-99.9,-100.00,ENE,69,0.0,2.0,-999,-99.99,,,-99.99,0.000000,,2013-01-02 02:00:00,
2013-01-01 19:53:00,4.0,-99.9,-100.00,ENE,69,0.0,2.0,-999,-99.99,,,-99.99,0.000000,,2013-01-02 02:53:00,
2013-01-01 20:00:00,6.0,-99.9,44.89,SSE,167,1.0,5.0,-999,-99.99,,,0.00,0.000000,,2013-01-02 03:00:00,
2013-01-01 20:53:00,6.0,-99.9,44.89,SSE,167,1.0,5.0,-999,-99.99,,,0.00,0.000000,,2013-01-02 03:53:00,
2013-01-01 21:00:00,5.0,-99.9,-100.00,SW,219,1.0,6.0,-999,-99.99,,,-99.99,0.000000,,2013-01-02 04:00:00,
2013-01-01 21:53:00,5.0,-99.9,-100.00,SW,219,1.0,6.0,-999,-99.99,,,-99.99,0.000000,,2013-01-02 04:53:00,
2013-01-01 22:00:00,1.0,-99.9,-100.00,NW,308,1.0,3.0,-999,-99.99,,,-99.99,0.000000,,2013-01-02 05:00:00,
2013-01-01 22:53:00,1.0,-99.9,-100.00,NW,308,1.0,3.0,-999,-99.99,,,-99.99,0.000000,,2013-01-02 05:53:00,
2013-01-01 23:00:00,6.0,-99.9,44.89,WNW,301,1.0,5.0,-999,-99.99,,,-99.99,0.000000,,2013-01-02 06:00:00,
2013-01-01 23:53:00,6.0,-99.9,44.89,WNW,301,1.0,5.0,-999,-99.99,,,-99.99,0.000000,,2013-01-02 06:53:00,